TimeCDT,TemperatureF,Dew PointF,Humidity,Sea Level PressureIn,VisibilityMPH,Wind Direction,Wind SpeedMPH,Gust SpeedMPH,PrecipitationIn,Events,Conditions,WindDirDegrees,DateUTC
12:53 AM,46.9,35.1,63,29.96,10.0,NNE,6.9,-,N/A,,Clear,30,2012-10-31 05:53:00
1:53 AM,45.0,35.1,68,29.96,10.0,NE,5.8,-,N/A,,Clear,40,2012-10-31 06:53:00
2:53 AM,44.1,33.1,65,29.98,10.0,NNE,8.1,-,N/A,,Clear,20,2012-10-31 07:53:00
3:53 AM,44.1,33.1,65,29.99,10.0,NNE,4.6,-,N/A,,Clear,20,2012-10-31 08:53:00
6:53 AM,39.9,30.9,70,30.02,10.0,NE,4.6,-,N/A,,Clear,40,2012-10-31 11:53:00
7:53 AM,36.0,30.0,79,30.05,10.0,Calm,Calm,-,N/A,,Clear,0,2012-10-31 12:53:00
8:53 AM,41.0,32.0,70,30.07,10.0,Calm,Calm,-,N/A,,Clear,0,2012-10-31 13:53:00
9:53 AM,51.1,28.9,43,30.09,10.0,NE,4.6,-,N/A,,Clear,50,2012-10-31 14:53:00
10:53 AM,55.9,26.1,32,30.09,-9999.0,Calm,Calm,-,N/A,,Unknown,0,2012-10-31 15:53:00
11:53 AM,60.1,28.0,30,30.09,10.0,Variable,3.5,-,N/A,,Clear,0,2012-10-31 16:53:00
12:53 PM,64.9,28.9,26,30.07,10.0,North,5.8,-,N/A,,Clear,350,2012-10-31 17:53:00
1:53 PM,66.9,30.0,25,30.04,10.0,East,3.5,-,N/A,,Clear,80,2012-10-31 18:53:00
2:53 PM,68.0,30.0,24,30.00,10.0,Calm,Calm,-,N/A,,Clear,0,2012-10-31 19:53:00
3:53 PM,70.0,30.9,24,29.98,10.0,Calm,Calm,-,N/A,,Clear,0,2012-10-31 20:53:00
4:53 PM,71.1,30.9,23,29.97,10.0,Calm,Calm,-,N/A,,Clear,0,2012-10-31 21:53:00
5:53 PM,69.1,30.9,24,29.98,10.0,Calm,Calm,-,N/A,,Clear,0,2012-10-31 22:53:00
6:53 PM,64.9,32.0,29,29.98,10.0,Calm,Calm,-,N/A,,Clear,0,2012-10-31 23:53:00
7:53 PM,59.0,33.1,38,30.00,10.0,Calm,Calm,-,N/A,,Clear,0,2012-11-01 00:53:00
8:53 PM,53.1,32.0,45,30.00,10.0,Calm,Calm,-,N/A,,Clear,0,2012-11-01 01:53:00
9:53 PM,53.1,33.1,47,30.00,10.0,Calm,Calm,-,N/A,,Clear,0,2012-11-01 02:53:00
10:53 PM,54.0,36.0,51,30.01,10.0,ESE,5.8,-,N/A,,Clear,110,2012-11-01 03:53:00
11:53 PM,50.0,35.1,57,30.02,10.0,Calm,Calm,-,N/A,,Clear,0,2012-11-01 04:53:00